Miscellaneous Local Product
Issued by NWS Hastings, NE

Home | Current Version | Previous Version | Text Only | Print | Product List | Glossary Off
Versions: 1 2 3 4 5 6 7 8 9 10 11 12 13 14 15 16 17 18 19 20 21 22 23 24 25 26 27 28 29 30 31 32 33 34 35 36 37 38 39 40 41 42 43 44 45 46 47 48 49 50

000
AXUS43 KGID 260602
MISGRI

GID CWA HOURLY WEATHER ROUNDUP
NATIONAL WEATHER SERVICE HASTINGS NE
100 AM CDT THU MAR 26 2015

NOTE: "FAIR" INDICATES FEW OR NO CLOUDS BELOW 12,000 FEET WITH NO
SIGNIFICANT WEATHER AND/OR OBSTRUCTIONS TO VISIBILITY.

...SOUTH CENTRAL NEBRASKA...

CITY           SKY/WX    TMP DP  RH WIND       PRES   REMARKS
GRAND ISLAND   FAIR      26  20  77 W6        30.26S WCI  19
HASTINGS       FAIR      26  20  77 NW7       30.25R WCI  18
KEARNEY        FAIR      27  18  69 NW6       30.26S WCI  20
ORD            FAIR      26  18  71 NW3       30.23S
YORK           FAIR      30  27  86 NW7       30.25S WCI  23
AURORA         FAIR      28  24  87 NW6       30.25S WCI  21
LEXINGTON      FAIR      23  18  79 W6        30.25S WCI  16
HOLDREGE       FAIR      24  18  77 N7        30.25S WCI  16
HEBRON         FAIR      32  27  82 NW7       30.24F WCI  26

...NEBRASKA PANHANDLE...

CITY           SKY/WX    TMP DP  RH WIND       PRES   REMARKS
CHADRON        FAIR      25  19  78 SW3       30.21F
ALLIANCE       FAIR      23  18  81 CALM      30.21F
SCOTTSBLUFF    FAIR      28  23  81 NE3       30.22F
SIDNEY         FAIR      25  20  81 W3        30.22F

...WESTERN AND NORTH CENTRAL NEBRASKA...

CITY           SKY/WX    TMP DP  RH WIND       PRES   REMARKS
VALENTINE      FAIR      20  16  84 SW6       30.23S WCI  12
AINSWORTH      FAIR      25  20  80 W7        30.23S WCI  18
ONEILL         FAIR      27  20  76 NW7       30.23F WCI  20
BROKEN BOW     FAIR      25  18  74 CALM      30.23S
IMPERIAL         N/A     31  22  69 W5        30.25S WCI  26
NORTH PLATTE   FAIR      22  18  85 CALM      30.25S
MCCOOK         FAIR      28  20  71 W5        30.26R WCI  23

...EASTERN NEBRASKA...

CITY           SKY/WX    TMP DP  RH WIND       PRES   REMARKS
NORFOLK        FAIR      32  23  69 NW5       30.23R WCI  27
SO SIOUX CITY  FAIR      28  22  78 W6        30.23R WCI  22
TEKAMAH        FAIR      29  23  78 NW18G26   30.24R WCI  16
COLUMBUS       FAIR      27  18  69 NW5       30.26S WCI  21
ALBION         FAIR      29  22  75 N3        30.24R
OMAHA EPPLEY   FAIR      31  28  89 N6        30.22R WCI  25
OFFUTT AFB     FAIR      30  26  88 NW12      30.20F WCI  20
MILLARD        FAIR      33  28  84 NW3       30.22S
LINCOLN        FAIR      29  24  82 N7        30.23F WCI  22
NEBRASKA CITY  FAIR      33  29  86 NW8       30.19F WCI  26
BEATRICE       FAIR      31  28  92 NW10      30.22F WCI  22
FALLS CITY     FAIR      35  30  82 NW8       30.18F WCI  29

...NORTHERN KANSAS...

CITY           SKY/WX    TMP DP  RH WIND       PRES   REMARKS
GOODLAND       FAIR      29  25  85 W9        30.26R WCI  20
HILL CITY      FAIR      30  25  81 N8        30.26F WCI  22
NORTON         CLEAR     30  21  69 N5        30.25S WCI  25
PHILLIPSBURG   CLEAR     32  28  86 NW3       30.27S
SMITH CENTER   CLEAR     28  25  86 N6        30.27S WCI  22
BELOIT         CLEAR     34  28  80 NW10      30.23F WCI  26
HAYS           FAIR      37  25  60 NW6       30.25F WCI  33
RUSSELL        FAIR      35  32  88 N9        30.22F WCI  28
CONCORDIA      FAIR      36  29  75 N8        30.22F WCI  30
SALINA         FAIR      40  35  83 NW10      30.22S WCI  33
TOPEKA         FAIR      40  35  83 N16G23    30.15F WCI  31



USA.gov is the U.S. government's official web portal to all federal, state and local government web resources and services.